Location: Praha
(50.0830°N, 14.4670°E)
Time: 14:01:19
(UTC+01:00)

ISS - Pass Details

Date: 09 December 2018
Orbit: 401 x 408 km, 51.6° (Epoch: 13 December)

Event Time Altitude Azimuth Distance (km) Brightness Sun altitude
Rises 16:43:43 0° 283° (WNW) 2,320 0.9 -6.8°
Reaches altitude 10° 16:45:48 10° 285° (WNW) 1,459 -0.2 -7.1°
Maximum altitude 16:49:04 80° 12° (NNE) 413 -3.9 -7.5°
Drops below altitude 10° 16:52:19 10° 101° (E) 1,453 -1.5 -8.0°
Enters shadow 16:53:02 - 101° (ESE) 1,747 -1.1 -8.1°
